This is the latest recevied weather packets stored in our database for station/object OE5ERN-10. If no packets are shown the sender has not sent any weather packets the latest 10 day(s).
| Time | Temp. | Humidity | Pressure | Rain* | Wind** | Luminosity | Snow |
|---|---|---|---|---|---|---|---|
| 1777789537 | 34.44° C | 23% | 1021.3 hPa | 0 mm | - | - | - |
| 1777788637 | 33.33° C | 27% | 1021.2 hPa | 0 mm | - | - | - |
| 1777787737 | 30° C | 30% | 1021.2 hPa | 0 mm | - | - | - |
| 1777786837 | 23.33° C | 47% | 1021.2 hPa | 0 mm | - | - | - |
| 1777785937 | 11.67° C | 67% | 1021.4 hPa | 0 mm | - | - | - |
| 1777785037 | 10° C | 69% | 1021.2 hPa | 0 mm | - | - | - |
| 1777784137 | 8.89° C | 71% | 1021.2 hPa | 0 mm | - | - | - |
| 1777783237 | 8.33° C | 73% | 1021.2 hPa | 0 mm | - | - | - |
| 1777782337 | 7.22° C | 74% | 1021.1 hPa | 0 mm | - | - | - |
| 1777781437 | 6.11° C | 74% | 1021.1 hPa | 0 mm | - | - | - |
| 1777780537 | 5.56° C | 74% | 1021 hPa | 0 mm | - | - | - |
| 1777779637 | -29.44° C | 73% | 1021 hPa | 0 mm | - | - | - |
| 1777778737 | 5.56° C | 72% | 1020.9 hPa | 0 mm | - | - | - |
| 1777777837 | 5.56° C | 70% | 1021 hPa | 0 mm | - | - | - |
| 1777776937 | 6.11° C | 69% | 1021 hPa | 0 mm | - | - | - |
| 1777776037 | 6.67° C | 68% | 1021 hPa | 0 mm | - | - | - |
| 1777775137 | 6.67° C | 66% | 1021.1 hPa | 0 mm | - | - | - |
| 1777774237 | 7.22° C | 64% | 1021.1 hPa | 0 mm | - | - | - |
| 1777773337 | 7.78° C | 62% | 1021.1 hPa | 0 mm | - | - | - |
| 1777772437 | 8.33° C | 59% | 1021.1 hPa | 0 mm | - | - | - |
| 1777771537 | 8.89° C | 57% | 1021 hPa | 0 mm | - | - | - |
| 1777770637 | 10° C | 54% | 1020.9 hPa | 0 mm | - | - | - |
| 1777769737 | 10.56° C | 53% | 1020.9 hPa | 0 mm | - | - | - |
| 1777768837 | 10.56° C | 53% | 1021 hPa | 0 mm | - | - | - |
| 1777767937 | 11.11° C | 52% | 1021.1 hPa | 0 mm | - | - | - |
* Rain latest hour (hover to see other rain measurements)
** Current wind speed in m/s (hover to see current wind gust speed)